sat.trackr.live / text

‹ back to catalog

STARLINK-33863

NORAD 63864 · 2025-094A

PAYLOAD ACTIVE UNKNOWN

§ Identity

Operator
Country
US
Launch date
2025-05-10
Launch site
AFWTR
Launch vehicle
Mass (kg)
RCS (m²)

Purposes: comms

External: N2YO · Heavens-Above · Gunter

§ Orbital elements

Epoch: 2026-09-20T14:24:50.735808Z

Period
94.14 min
Inclination
69.9995°
Eccentricity
0.0003228
Mean motion
15.29577974 rev/d
Perigee alt
474.9 km
Apogee alt
479.3 km
Semi-major
6,855.2 km
B*
1.4615e-4
RAAN
100.8454°
Arg perigee
266.1534°
Mean anomaly
93.9272°
Rev number
7,645

§ Raw data

STARLINK-338631 63864U 25094A   26263.60058722  .00004076  00000+0  14615-3 0  99922 63864  69.9995 100.8454 0003228 266.1534  93.9272 15.29577974 76450

JSON: /api/v1/satellites/63864 · /tle

For live sub-satellite position, see the globe view (requires WebGL).

§ Visibility from observer

Set your observer location to see the next 7 days of passes ≥ 10°. The values pass through the URL so the page stays shareable.

No JS? Fill the form by hand. The geolocation button needs JavaScript.